Search your local weather  

 

Hazardous Weather Conditions

No active alerts for LOS ANGELES, CALIFORNIA

Current Conditions: LOS ANGELES, CALIFORNIA

Overcast


61.0 F

Last Updated on May 21 2022, 12:51 am PDT
Humidity: 84%
Wind Speed: N 0.0 mph
Barometer 29.87 in
Dewpoint: 55.9 F
Visibility: 10.00 mi
Precip: --
Heat Index: NA
Wind Chill: NA
Current conditions at:

Santa Monica, Santa Monica Municipal Airport, CA (KSMO)

Lat: 34.01583 Lon: -118.45139

Local Radar Image active severe weather and emergency alerts image image weather storm and storm spotter reports image weather observation monitoring service image
Local
Radar
Active
Alerts
Storm Reports Weather
Monitoring

5 Day Forecast for LOS ANGELES, CALIFORNIA (90001)

Saturday

Overcast

High 71 °F
Saturday
Night
Overcast

Low 57 °F
Sunday

Overcast

High 71 °F
Sunday
Night
Mostly Clear

Low 56 °F
Monday

Mostly Sunny

High 75 °F
Monday
Night
Overnight Fog
Low 58 °F
Tuesday

Mostly Sunny

High 78 °F
Tuesday
Night
Overnight Fog
Low 60 °F
Wednesday

Partly Sunny

High 78 °F

Sign-up For Email & Text Message Weather Alert Notification Services



Advertise Here

Observation History for LOS ANGELES, CALIFORNIA


Time Wind
(mph)
Vis
(mi)
Weather Precip (in) Temperature (F) Relative
Humidity
Wind
Chill
(F)
Heat
Index
(F)
Pressure
Air Dwpt altimeter
(in)
sea level
(mb)
12:51 am PDT N 0.0 10.00 Overcast -- 61.0 55.9 84% NA NA 29.87 1011.4
11:51 pm PDT SW 3.5 10.00 Mostly Cloudy -- 60.0 55.9 86% NA NA 29.87 1011.5
10:51 pm PDT SW 3.5 10.00 Overcast -- 61.0 55.9 84% NA NA 29.87 1011.5
9:51 pm PDT S 3.5 10.00 Overcast -- 62.0 55.9 80% NA NA 29.86 1010.9
8:51 pm PDT N 0.0 10.00 Overcast -- 62.0 55.0 78% NA NA 29.84 1010.4
7:51 pm PDT N 0.0 10.00 Overcast -- 62.0 55.9 80% NA NA 29.83 1009.9
6:51 pm PDT 3.5 10.00 Overcast -- 61.0 55.9 84% NA NA 29.82 1009.7
5:51 pm PDT SW 4.6 10.00 Overcast -- 61.0 55.9 84% 61 NA 29.82 1009.8
4:51 pm PDT SW 8.1 10.00 Overcast -- 62.0 55.9 80% 61 NA 29.82 1009.8
2:51 pm PDT SW 9.2 10.00 Overcast -- 63.0 54.0 73% 62 NA 29.82 1009.6
1:51 pm PDT SW 8.1 10.00 Overcast -- 65.0 55.0 70% NA NA 29.82 1009.7
12:51 pm PDT SW 6.9 10.00 Overcast -- 63.0 55.0 76% 63 NA 29.82 1009.7
11:51 am PDT S 5.8 10.00 Overcast -- 65.0 55.0 70% NA NA 29.82 1009.6
8:51 am PDT N 0.0 10.00 Overcast -- 61.0 55.0 81% NA NA 29.81 1009.3
7:51 am PDT N 0.0 10.00 Overcast -- 60.0 55.0 84% NA NA 29.80 1009.0
6:51 am PDT N 0.0 10.00 Overcast -- 59.0 55.0 87% NA NA 29.79 1008.7
4:51 am PDT E 3.5 10.00 Overcast -- 58.0 54.0 87% NA NA 29.78 1008.5
3:51 am PDT SE 4.6 10.00 Overcast -- 58.0 54.0 87% 58 NA 29.79 1008.5
2:51 am PDT SE 6.9 10.00 Overcast -- 58.0 54.0 87% 57 NA 29.80 1008.9
1:51 am PDT SE 5.8 7.00 Overcast -- 58.0 55.0 90% 57 NA 29.80 1009.1

Regional Weather Observation

Los Angeles / USC Campus Downtown, CA (KCQT)

Overcast
62.0 F

Burbank - Bob Hope Airport, CA (KBUR)

Overcast
63.0 F

Van Nuys, Van Nuys Airport, CA (KVNY)

Overcast
62.0 F

Los Angeles, Whiteman Airport, CA (KWHP)

Overcast
63.0 F

Los Angeles, Los Angeles International Airport, CA (KLAX)

Overcast
62.0 F

Hawthorne, Hawthorne Municipal Airport, CA (KHHR)

Overcast
63.0 F

Advertise Here


Advertise Here